Location: Hylvaty SDH
(49.9612°N, 16.4057°E)
Time: 01:49:31
(UTC+01:00)

Transit 4A - Pass Details

Date: 09 August 2020
Orbit: 864 x 981 km, 66.8° (Epoch: 15 January)

Event Time Altitude Azimuth Distance (km) Brightness Sun altitude
Rises 10:50:31 0° 214° (SW) 3,477 11.0 46.9°
Reaches altitude 10° 10:52:58 10° 215° (SW) 2,556 10.4 47.2°
Maximum altitude 10:58:55 89° 302° (WNW) 919 8.8 47.9°
Drops below altitude 10° 11:05:06 10° 37° (NE) 2,652 10.3 48.6°
Sets 11:07:41 0° 37° (NE) 3,618 10.9 48.9°
